SCP
0 0 0 0 0 0 -0 -0 -0 -0 -0 -0 -0 0 0 0 0 0 0 0 0 0 0 0 0 0 0 0 0 0 0 0 0 -0 -0 0 0 0 0 0 0 0 0 0 0 -0 -0
0 0 0 0 0 0 0 0 0 0 0 0 0 0 -0 0 0 0 0 0 0 0 0 0 0 0 0 0 0 0 -0 0 0 -0 -0 0 0 0 0 0 0 0 0 0 -0 -0 0
0 0 0 0 0 0 0 0 0 0 -0 -0 0 0 -0 -0 0 0 0 0 0 0 0 0 0 0 0 0 0 0 0 0 0 -0 -0 -0 0 0 0 0 0 0 0 0 -0 0 -0
0 0 0 0 0 0 0 0 0 0 -0 -0 -0 -0 -0 0 0 0 0 0 0 0 0 0 0 0 0 0 0 0 0 0 0 0 0 0 0 0 0 0 0 0 0 -0 0 0 0
0 0 0 0 0 0 0 0 0 -0 -0 -0 -0 -0 -0 -0 0 0 0 0 0 0 0 0 0 0 0 0 0 0 0 0 0 0 0 0 0 0 0 0 0 0 0 0 0 -0 -0
0 0 0 0 0 0 0 0 -0 -0 -0 -0 -0 -0 -0 -0 -0 0 -0 -0 0 0 0 0 0 0 0 0 0 0 0 0 0 0 0 0 0 0 0 0 0 0 -0 -0 0 0 0
0 0 0 0 0 0 0 0 -0 -0 -0 -0 -0 0 -0 -0 -0 -0 -0 0 0 0 0 0 0 0 0 0 0 0 0 0 0 0 0 0 0 0 0 0 0 0 0 0 0 0 -0
0 0 0 0 0 0 0 0 -0 -0 -0 -0 -0 -0 -0 -0 -0 -0 -0 0 0 0 0 0 0 0 0 0 0 0 0 0 0 0 0 0 0 0 0 0 0 0 0 0 0 0 0
0 0 0 0 0 0 0 0 0 0 0 0 -0 -0 -0 -0 -0 -0 -0 0 0 0 0 0 0 0 0 0 0 0 0 0 0 0 0 0 0 0 0 0 0 0 0 0 0 0 0
0 0 0 0 0 0 0 0 0 0 0 -0 -0 -0 -0 -0 -0 -0 -0 0 -0 0 0 0 0 0 0 -0 0 0 0 0 0 0 0 0 0 0 0 0 0 0 0 0 0 0 0
0 0 0 0 0 0 0 0 0 0 0 -0 -0 -0 -0 -0 -0 -0 0 -0 -0 0 -0 0 0 0 0 -0 0 0 -0 0 0 0 0 0 0 0 0 0 0 0 0 0 0 0 0
0 0 0 0 0 0 0 0 0 0 0 -0 -0 -0 -0 0 0 0 -0 -0 -0 0 0 0 0 0 0 -0 0 0 -0 0 0 0 0 0 0 0 0 0 0 0 0 0 0 0 0
0 0 0 0 0 0 0 0 0 0 0 0 -0 -0 0 -0 -0 -0 -0 -0 0 0 0 0 0 0 -0 0 0 0 0 0 0 0 0 0 0 0 0 0 0 0 0 0 0 0 0
0 0 0 0 0 0 0 0 0 0 0 0 -0 -0 0 0 0 0 0 -0 0 0 0 0 0 -0 -0 0 0 0 0 0 0 0 0 0 0 0 0 0 0 0 -0 0 0 0 0
-0 0 0 0 0 0 0 0 0 0 0 0 -0 0 0 0 0 0 -0 -0 -0 0 0 0 0 -0 0 0 0 0 0 0 0 0 0 0 0 0 0 0 0 0 0 -0 0 0 0
0 0 0 0 0 -0 0 0 0 0 0 0 0 0 0 0 0 -0 -0 0 0 0 0 0 0 0 0 0 0 0 0 0 0 0 0 0 0 0 0 0 0 0 0 0 0 0 0
0 0 0 0 0 -0 -0 -0 -0 0 0 0 0 0 -0 -0 -0 -0 -0 -0 0 -0 0 0 0 0 0 0 -0 0 0 0 0 0 0 0 0 0 0 0 0 0 0 0 0 0 0
0 0 0 0 -0 -0 -0 -0 -0 -0 0 0 0 0 -0 -0 -0 0 -0 0 0 0 0 0 0 0 0 0 0 0 0 0 0 0 0 0 0 -0 -0 0 0 0 0 0 0 0 0
0 -0 0 0 -0 -0 -0 -0 -0 -0 0 0 0 0 0 -0 -0 0 0 -0 -0 0 0 0 0 0 0 0 0 0 0 0 0 0 0 0 0 0 0 0 0 0 0 0 0 0 0
0 -0 0 0 -0 -0 -0 -0 -0 -0 0 0 0 0 0 0 -0 0 0 0 -0 0 -0 0 0 0 0 0 0 0 0 0 0 0 0 0 0 0 0 0 0 0 0 0 0 0 0
-0 -0 0 0 -0 -0 -0 -0 -0 -0 0 0 0 0 -0 0 0 -0 0 0 0 -0 -0 0 0 0 0 0 0 0 0 0 0 0 0 0 0 0 0 0 0 0 0 0 0 0 0
0 0 0 0 -0 -0 -0 -0 -0 -0 -0 0 0 0 0 0 0 -0 0 -0 -0 -0 -0 -0 0 0 0 0 0 0 0 0 0 0 0 0 0 0 0 0 0 0 0 0 0 0 0
0 0 0 0 -0 -0 -0 -0 -0 -0 -0 0 0 0 0 0 0 -0 0 -0 -0 -0 -0 -0 0 0 0 0 0 0 0 0 0 0 0 0 0 0 0 0 0 0 0 0 0 0 0
0 0 0 0 -0 -0 -0 -0 -0 -0 -0 0 -0 0 0 0 0 0 0 -0 -0 -0 -0 -0 0 0 0 0 0 0 0 0 0 0 0 0 0 0 0 0 0 0 0 0 0 0 0
0 0 0 0 -0 -0 -0 -0 -0 -0 -0 0 0 0 -0 0 0 0 0 0 0 0 -0 -0 -0 -0 0 0 0 0 0 0 0 0 0 0 0 0 0 0 0 0 0 0 0 0 0
0 0 0 0 -0 -0 -0 -0 -0 -0 -0 0 0 0 0 0 -0 0 0 0 0 0 0 0 -0 -0 0 0 0 0 0 0 0 0 0 0 0 0 0 0 0 0 0 0 0 0 0
0 0 -0 0 -0 -0 -0 -0 -0 -0 -0 0 0 0 0 0 -0 0 0 0 -0 -0 0 0 -0 -0 0 0 0 0 0 0 0 0 0 0 0 0 0 0 0 0 0 0 0 0 0
0 0 -0 0 0 0 -0 -0 -0 -0 -0 -0 0 -0 0 -0 -0 0 0 0 0 0 0 -0 0 0 0 0 0 0 0 0 0 0 0 0 0 0 0 0 0 0 0 0 0 0 0
0 0 -0 0 0 0 0 -0 -0 -0 -0 -0 0 -0 -0 0 0 0 0 0 0 0 0 0 0 0 0 0 0 0 0 0 0 0 0 0 0 0 0 0 0 0 0 0 0 0 0
Wind_Speed_500mb
37 37 35 34 34 34 34 34 34 32 30 28 26 24 25 26 26 27 25 25 26 24 19 16 13 12 8 14 21 19 17 26 40 47 43 41 40 37 28 27 21 15 8 7 14 12 25
41 41 40 38 36 36 35 34 33 32 31 29 29 30 29 27 26 26 27 25 25 24 20 18 12 9 9 27 6 15 15 38 45 44 44 39 34 35 21 20 22 32 21 9 8 22 24
42 41 39 39 39 38 37 36 35 35 33 32 31 31 33 32 29 27 26 26 25 23 18 17 12 10 19 4 5 12 23 35 42 41 41 38 25 23 23 18 27 11 16 20 15 22 26
42 44 43 41 41 42 40 38 36 35 35 34 33 31 30 32 32 28 26 24 21 17 15 14 11 9 15 19 14 21 28 30 36 35 32 31 24 31 21 14 25 27 26 24 20 25 20
42 45 46 46 46 45 43 40 36 35 34 32 32 31 30 29 28 26 23 13 7 8 13 13 6 17 18 13 29 29 29 35 33 32 28 26 21 34 28 21 27 28 29 26 26 28 28
42 46 48 48 48 45 43 40 38 37 36 34 32 29 27 26 24 16 4 6 12 14 15 13 9 16 23 32 36 33 31 31 34 32 24 28 25 28 26 28 31 36 34 34 24 20 21
41 46 49 50 48 44 41 40 37 36 36 32 29 26 23 18 11 6 21 8 5 8 24 18 22 17 16 40 39 33 33 35 36 33 29 39 25 33 40 41 40 35 39 29 23 30 24
40 46 49 48 45 41 40 38 39 40 36 29 23 18 12 7 10 17 8 11 10 9 17 33 11 13 9 42 41 37 38 33 33 33 42 27 36 32 30 32 38 31 42 28 26 18 17
40 45 48 46 42 39 38 38 38 35 30 28 22 14 8 13 12 8 2 6 8 10 16 30 28 32 28 39 41 46 44 40 34 39 42 30 30 31 25 28 26 33 33 26 30 15 31
39 45 46 45 41 39 38 37 33 28 24 26 23 11 12 7 2 1 5 8 11 9 12 25 26 24 35 38 32 41 45 35 24 36 34 31 21 34 26 31 34 36 32 21 24 30 24
42 46 45 44 41 41 41 39 32 24 19 20 21 12 8 6 5 14 8 10 9 9 12 24 32 29 34 46 36 36 46 40 30 31 21 33 23 26 32 34 31 22 31 7 28 27 22
41 44 43 41 42 45 45 42 33 23 17 16 17 15 0 4 11 10 13 14 7 16 2 16 19 26 37 43 27 48 47 31 24 28 27 31 25 25 36 33 32 10 26 19 18 28 27
41 43 41 39 42 47 47 43 33 24 16 14 11 18 8 7 13 16 15 15 16 6 8 17 26 35 40 29 31 33 41 33 24 27 25 26 19 33 28 34 28 23 30 23 23 23 22
41 43 40 37 41 46 45 41 35 22 16 12 14 16 13 14 15 13 12 24 5 25 13 14 7 35 35 34 28 37 36 34 27 30 27 24 29 25 26 34 25 34 40 24 23 26 29
39 42 40 36 38 43 45 43 39 31 20 10 16 8 7 15 14 12 27 14 14 6 11 14 23 32 22 28 20 32 25 27 17 12 16 29 21 14 11 28 11 35 40 47 24 28 27
36 40 39 34 35 41 46 45 40 38 22 14 11 15 3 14 11 19 28 6 14 14 6 16 21 13 22 23 23 32 22 9 6 9 23 11 22 27 21 16 28 27 30 39 19 26 35
33 38 38 35 34 41 47 44 41 38 24 9 11 17 7 10 11 34 9 21 12 14 14 12 13 14 19 30 31 25 17 12 7 16 19 21 10 22 13 31 32 24 26 39 27 31 27
34 35 36 34 31 38 43 43 42 39 22 7 13 9 17 6 26 8 15 9 3 10 7 6 8 22 3 7 3 7 13 14 7 16 20 8 14 24 34 9 11 22 26 32 22 39 27
35 33 34 32 30 33 39 39 38 39 26 10 8 13 13 14 8 11 12 17 21 7 10 7 4 7 9 5 3 8 12 7 8 6 5 3 18 13 13 16 18 22 20 25 36 35 29
35 32 33 30 28 28 34 35 35 33 25 11 12 3 13 14 12 8 7 8 12 8 16 15 8 11 12 12 4 11 14 6 10 9 9 10 23 18 8 17 30 37 14 25 26 22 23
33 30 30 27 25 24 31 31 32 27 21 14 16 11 9 14 17 14 8 4 6 9 10 2 5 7 7 6 6 9 15 15 9 4 5 9 19 10 7 13 14 20 28 15 31 32 17
31 26 28 24 22 21 27 29 32 22 19 13 10 6 12 12 4 7 6 16 14 10 7 11 10 5 7 5 14 15 5 7 6 4 2 7 7 17 14 2 2 12 14 9 11 5 15
27 24 23 21 20 18 20 25 29 24 25 15 11 8 10 5 1 15 17 12 10 6 13 12 7 7 14 12 12 12 10 5 6 9 6 10 10 13 24 13 11 23 26 23 17 11 17
23 21 19 18 18 15 12 19 24 27 29 18 8 7 6 8 13 12 10 13 15 16 12 13 6 7 6 5 5 7 5 4 5 4 10 10 19 17 22 11 23 7 13 6 16 18 12
23 16 15 15 15 14 11 10 16 20 22 21 14 9 8 6 11 12 10 13 15 11 14 16 15 9 8 9 9 8 12 10 7 6 9 9 14 14 21 20 10 13 10 13 22 21 3
17 14 13 13 13 14 11 7 6 11 16 19 16 8 9 5 14 9 8 4 7 10 11 9 7 2 9 16 8 12 6 6 8 11 10 11 14 13 15 22 31 28 22 6 3 21 19
16 14 11 12 13 13 11 8 7 7 6 10 10 14 7 9 14 7 4 8 3 5 7 8 6 9 8 8 4 5 4 10 7 8 10 14 14 19 19 16 8 22 17 13 18 12 24
16 13 10 8 10 12 11 10 9 9 6 6 7 11 10 11 12 6 5 4 7 7 10 17 11 9 11 6 6 6 6 6 5 14 5 14 10 12 18 19 20 26 15 11 21 27 24
16 12 9 6 7 9 9 9 9 8 6 6 2 14 6 10 11 6 7 7 2 3 10 6 11 3 10 3 1 5 6 6 9 5 12 9 4 8 7 9 16 19 11 22 19 23 17
Wind_Direction_500mb
15 11 7 2 357 352 347 345 342 341 339 335 331 328 324 321 317 310 301 292 286 280 269 256 257 268 225 233 252 276 218 189 179 179 193 193 198 206 218 210 189 227 199 157 135 132 113
13 10 6 2 357 354 350 346 342 340 336 333 329 326 323 319 313 307 303 293 281 274 263 251 229 243 220 247 273 264 184 178 178 182 192 195 199 210 261 240 207 186 240 177 178 135 147
11 8 5 360 355 349 346 343 338 333 329 325 321 321 321 316 311 308 302 291 279 266 251 241 215 199 240 209 180 165 169 173 177 184 190 196 205 203 226 215 223 233 229 220 210 166 153
6 4 1 358 353 349 345 341 335 330 327 324 321 319 315 312 312 310 305 297 280 254 231 212 203 186 263 199 184 171 161 173 183 184 194 195 208 216 248 213 188 227 222 201 174 162 142
3 3 360 355 352 349 346 342 339 336 332 328 324 321 316 315 314 313 310 308 284 203 187 168 156 200 226 195 175 173 173 170 176 184 189 189 210 213 208 219 207 211 198 222 155 187 159
0 1 358 355 353 352 350 348 346 344 340 335 327 325 322 320 318 317 350 93 107 114 149 159 245 216 220 190 172 173 169 171 171 168 175 198 213 207 220 212 202 194 214 194 168 172 198
359 360 357 356 357 358 356 352 353 351 343 337 330 331 330 335 341 104 128 74 149 160 207 222 185 262 153 164 164 176 179 178 183 190 201 197 211 208 201 210 230 206 228 198 167 151 205
1 0 358 358 2 3 360 358 357 353 353 356 351 349 352 57 82 129 80 272 12 342 250 223 206 246 152 160 167 178 174 182 195 202 216 185 218 211 227 214 238 245 216 199 128 150 248
1 2 0 1 4 6 3 358 359 1 11 9 2 9 83 114 102 122 334 351 333 318 252 172 204 200 192 184 183 178 188 204 198 209 207 210 206 227 217 205 211 232 217 188 158 172 244
2 3 4 3 6 9 3 356 358 4 12 19 18 30 131 152 145 184 219 317 321 293 262 143 190 207 182 189 203 185 197 209 206 219 203 231 219 205 205 195 216 205 235 181 192 191 203
4 5 6 4 8 7 2 355 352 355 3 11 27 51 131 271 235 259 279 308 292 246 246 152 164 170 184 200 134 176 194 214 240 220 200 212 195 200 205 216 204 234 211 243 173 216 200
5 5 6 6 9 8 2 355 350 350 347 355 22 35 277 290 267 274 289 292 267 232 151 143 145 193 172 212 159 159 191 228 241 230 202 242 210 192 210 213 192 262 160 210 210 233 242
4 5 6 9 12 10 6 3 356 346 332 326 327 348 340 255 296 288 280 242 222 282 250 153 177 181 188 186 161 171 191 196 213 202 192 218 223 197 226 201 186 183 191 187 202 215 224
2 4 5 7 12 10 7 5 1 350 329 311 311 324 323 333 301 280 246 240 294 310 29 357 210 182 198 167 177 179 187 200 219 249 185 198 184 177 207 232 177 203 208 198 189 205 203
357 1 3 5 10 8 5 2 2 354 334 319 318 322 343 331 293 247 258 323 173 22 342 293 216 204 189 172 181 183 192 200 184 258 308 183 160 115 238 237 273 198 234 234 274 200 214
355 358 1 0 4 4 0 359 357 350 335 312 324 260 354 333 301 261 257 143 81 8 295 266 246 172 183 167 214 199 179 33 135 237 286 270 130 188 173 250 244 266 220 240 241 238 208
352 355 358 358 0 3 360 357 356 354 344 297 279 253 37 329 284 261 18 60 74 54 331 341 325 171 253 186 204 193 159 83 275 289 288 304 197 168 170 206 206 213 241 235 231 256 213
348 352 355 357 359 3 2 360 359 360 1 0 295 299 354 298 260 0 47 35 270 47 45 69 35 357 272 114 295 125 145 29 319 301 237 292 274 162 202 80 314 295 230 235 239 227 267
345 349 353 355 359 4 4 5 3 3 8 324 336 39 17 288 295 102 124 98 46 75 36 66 86 22 321 324 98 97 122 71 2 346 12 355 259 150 182 187 210 237 216 268 233 262 236
344 347 351 354 358 4 4 2 2 1 9 352 310 241 81 51 28 69 113 93 112 62 77 88 112 166 186 201 177 155 141 120 73 51 328 285 262 277 8 275 194 212 219 235 270 241 250
342 344 350 355 357 2 5 6 4 2 29 340 349 51 7 14 48 53 56 17 127 103 87 105 114 207 244 172 158 150 137 149 149 94 247 303 262 267 61 6 339 179 199 206 243 257 312
336 341 348 354 356 2 10 13 16 22 42 22 0 11 95 64 353 149 132 47 80 85 338 84 94 118 206 181 329 147 178 236 113 156 270 262 212 288 212 259 255 247 201 217 281 336 259
332 339 346 354 356 359 12 21 25 34 50 45 49 63 312 187 229 52 35 42 71 69 62 56 44 117 122 61 18 28 2 22 59 284 201 261 247 222 256 181 259 245 237 211 216 212 305
328 333 341 352 355 354 6 28 32 35 61 42 18 334 350 91 46 74 83 75 58 52 80 72 41 287 59 208 195 209 179 158 215 214 256 233 238 238 254 162 236 95 10 315 197 150 92
326 325 338 353 357 351 347 18 37 40 50 57 15 344 352 49 98 126 105 110 123 116 68 48 52 51 148 212 173 170 174 187 158 243 216 255 234 230 250 212 153 162 171 176 184 158 209
318 327 337 350 1 352 343 335 5 38 43 63 8 27 316 311 78 113 124 222 220 124 157 106 75 60 218 273 244 254 172 269 170 165 239 208 263 255 216 263 228 81 102 65 233 178 169
300 321 327 348 4 357 340 337 320 314 17 44 359 22 317 313 126 201 329 31 337 311 64 127 155 176 226 259 316 324 16 349 269 231 178 201 217 226 231 239 118 106 126 159 208 113 143
292 304 320 337 7 3 348 347 335 319 311 60 291 349 6 310 130 190 160 171 176 260 321 103 199 190 202 238 218 141 271 167 273 298 270 206 204 218 244 230 233 132 141 230 95 127 130
286 295 307 310 348 356 352 360 4 350 346 69 22 329 326 267 44 188 207 209 203 351 343 175 357 335 19 223 238 168 220 207 220 259 206 276 268 262 309 36 93 139 76 126 138 140 131
Wind_Speed_850mb
37 37 35 34 34 34 34 34 34 32 30 28 26 24 25 26 26 27 25 25 26 24 19 16 13 12 8 14 21 19 17 26 40 47 43 41 40 37 28 27 21 15 8 7 14 12 25
41 41 40 38 36 36 35 34 33 32 31 29 29 30 29 27 26 26 27 25 25 24 20 18 12 9 9 27 6 15 15 38 45 44 44 39 34 35 21 20 22 32 21 9 8 22 24
42 41 39 39 39 38 37 36 35 35 33 32 31 31 33 32 29 27 26 26 25 23 18 17 12 10 19 4 5 12 23 35 42 41 41 38 25 23 23 18 27 11 16 20 15 22 26
42 44 43 41 41 42 40 38 36 35 35 34 33 31 30 32 32 28 26 24 21 17 15 14 11 9 15 19 14 21 28 30 36 35 32 31 24 31 21 14 25 27 26 24 20 25 20
42 45 46 46 46 45 43 40 36 35 34 32 32 31 30 29 28 26 23 13 7 8 13 13 6 17 18 13 29 29 29 35 33 32 28 26 21 34 28 21 27 28 29 26 26 28 28
42 46 48 48 48 45 43 40 38 37 36 34 32 29 27 26 24 16 4 6 12 14 15 13 9 16 23 32 36 33 31 31 34 32 24 28 25 28 26 28 31 36 34 34 24 20 21
41 46 49 50 48 44 41 40 37 36 36 32 29 26 23 18 11 6 21 8 5 8 24 18 22 17 16 40 39 33 33 35 36 33 29 39 25 33 40 41 40 35 39 29 23 30 24
40 46 49 48 45 41 40 38 39 40 36 29 23 18 12 7 10 17 8 11 10 9 17 33 11 13 9 42 41 37 38 33 33 33 42 27 36 32 30 32 38 31 42 28 26 18 17
40 45 48 46 42 39 38 38 38 35 30 28 22 14 8 13 12 8 2 6 8 10 16 30 28 32 28 39 41 46 44 40 34 39 42 30 30 31 25 28 26 33 33 26 30 15 31
39 45 46 45 41 39 38 37 33 28 24 26 23 11 12 7 2 1 5 8 11 9 12 25 26 24 35 38 32 41 45 35 24 36 34 31 21 34 26 31 34 36 32 21 24 30 24
42 46 45 44 41 41 41 39 32 24 19 20 21 12 8 6 5 14 8 10 9 9 12 24 32 29 34 46 36 36 46 40 30 31 21 33 23 26 32 34 31 22 31 7 28 27 22
41 44 43 41 42 45 45 42 33 23 17 16 17 15 0 4 11 10 13 14 7 16 2 16 19 26 37 43 27 48 47 31 24 28 27 31 25 25 36 33 32 10 26 19 18 28 27
41 43 41 39 42 47 47 43 33 24 16 14 11 18 8 7 13 16 15 15 16 6 8 17 26 35 40 29 31 33 41 33 24 27 25 26 19 33 28 34 28 23 30 23 23 23 22
41 43 40 37 41 46 45 41 35 22 16 12 14 16 13 14 15 13 12 24 5 25 13 14 7 35 35 34 28 37 36 34 27 30 27 24 29 25 26 34 25 34 40 24 23 26 29
39 42 40 36 38 43 45 43 39 31 20 10 16 8 7 15 14 12 27 14 14 6 11 14 23 32 22 28 20 32 25 27 17 12 16 29 21 14 11 28 11 35 40 47 24 28 27
36 40 39 34 35 41 46 45 40 38 22 14 11 15 3 14 11 19 28 6 14 14 6 16 21 13 22 23 23 32 22 9 6 9 23 11 22 27 21 16 28 27 30 39 19 26 35
33 38 38 35 34 41 47 44 41 38 24 9 11 17 7 10 11 34 9 21 12 14 14 12 13 14 19 30 31 25 17 12 7 16 19 21 10 22 13 31 32 24 26 39 27 31 27
34 35 36 34 31 38 43 43 42 39 22 7 13 9 17 6 26 8 15 9 3 10 7 6 8 22 3 7 3 7 13 14 7 16 20 8 14 24 34 9 11 22 26 32 22 39 27
35 33 34 32 30 33 39 39 38 39 26 10 8 13 13 14 8 11 12 17 21 7 10 7 4 7 9 5 3 8 12 7 8 6 5 3 18 13 13 16 18 22 20 25 36 35 29
35 32 33 30 28 28 34 35 35 33 25 11 12 3 13 14 12 8 7 8 12 8 16 15 8 11 12 12 4 11 14 6 10 9 9 10 23 18 8 17 30 37 14 25 26 22 23
33 30 30 27 25 24 31 31 32 27 21 14 16 11 9 14 17 14 8 4 6 9 10 2 5 7 7 6 6 9 15 15 9 4 5 9 19 10 7 13 14 20 28 15 31 32 17
31 26 28 24 22 21 27 29 32 22 19 13 10 6 12 12 4 7 6 16 14 10 7 11 10 5 7 5 14 15 5 7 6 4 2 7 7 17 14 2 2 12 14 9 11 5 15
27 24 23 21 20 18 20 25 29 24 25 15 11 8 10 5 1 15 17 12 10 6 13 12 7 7 14 12 12 12 10 5 6 9 6 10 10 13 24 13 11 23 26 23 17 11 17
23 21 19 18 18 15 12 19 24 27 29 18 8 7 6 8 13 12 10 13 15 16 12 13 6 7 6 5 5 7 5 4 5 4 10 10 19 17 22 11 23 7 13 6 16 18 12
23 16 15 15 15 14 11 10 16 20 22 21 14 9 8 6 11 12 10 13 15 11 14 16 15 9 8 9 9 8 12 10 7 6 9 9 14 14 21 20 10 13 10 13 22 21 3
17 14 13 13 13 14 11 7 6 11 16 19 16 8 9 5 14 9 8 4 7 10 11 9 7 2 9 16 8 12 6 6 8 11 10 11 14 13 15 22 31 28 22 6 3 21 19
16 14 11 12 13 13 11 8 7 7 6 10 10 14 7 9 14 7 4 8 3 5 7 8 6 9 8 8 4 5 4 10 7 8 10 14 14 19 19 16 8 22 17 13 18 12 24
16 13 10 8 10 12 11 10 9 9 6 6 7 11 10 11 12 6 5 4 7 7 10 17 11 9 11 6 6 6 6 6 5 14 5 14 10 12 18 19 20 26 15 11 21 27 24
16 12 9 6 7 9 9 9 9 8 6 6 2 14 6 10 11 6 7 7 2 3 10 6 11 3 10 3 1 5 6 6 9 5 12 9 4 8 7 9 16 19 11 22 19 23 17
Wind_Direction_850mb
15 11 7 2 357 352 347 345 342 341 339 335 331 328 324 321 317 310 301 292 286 280 269 256 257 268 225 233 252 276 218 189 179 179 193 193 198 206 218 210 189 227 199 157 135 132 113
13 10 6 2 357 354 350 346 342 340 336 333 329 326 323 319 313 307 303 293 281 274 263 251 229 243 220 247 273 264 184 178 178 182 192 195 199 210 261 240 207 186 240 177 178 135 147
11 8 5 360 355 349 346 343 338 333 329 325 321 321 321 316 311 308 302 291 279 266 251 241 215 199 240 209 180 165 169 173 177 184 190 196 205 203 226 215 223 233 229 220 210 166 153
6 4 1 358 353 349 345 341 335 330 327 324 321 319 315 312 312 310 305 297 280 254 231 212 203 186 263 199 184 171 161 173 183 184 194 195 208 216 248 213 188 227 222 201 174 162 142
3 3 360 355 352 349 346 342 339 336 332 328 324 321 316 315 314 313 310 308 284 203 187 168 156 200 226 195 175 173 173 170 176 184 189 189 210 213 208 219 207 211 198 222 155 187 159
0 1 358 355 353 352 350 348 346 344 340 335 327 325 322 320 318 317 350 93 107 114 149 159 245 216 220 190 172 173 169 171 171 168 175 198 213 207 220 212 202 194 214 194 168 172 198
359 360 357 356 357 358 356 352 353 351 343 337 330 331 330 335 341 104 128 74 149 160 207 222 185 262 153 164 164 176 179 178 183 190 201 197 211 208 201 210 230 206 228 198 167 151 205
1 0 358 358 2 3 360 358 357 353 353 356 351 349 352 57 82 129 80 272 12 342 250 223 206 246 152 160 167 178 174 182 195 202 216 185 218 211 227 214 238 245 216 199 128 150 248
1 2 0 1 4 6 3 358 359 1 11 9 2 9 83 114 102 122 334 351 333 318 252 172 204 200 192 184 183 178 188 204 198 209 207 210 206 227 217 205 211 232 217 188 158 172 244
2 3 4 3 6 9 3 356 358 4 12 19 18 30 131 152 145 184 219 317 321 293 262 143 190 207 182 189 203 185 197 209 206 219 203 231 219 205 205 195 216 205 235 181 192 191 203
4 5 6 4 8 7 2 355 352 355 3 11 27 51 131 271 235 259 279 308 292 246 246 152 164 170 184 200 134 176 194 214 240 220 200 212 195 200 205 216 204 234 211 243 173 216 200
5 5 6 6 9 8 2 355 350 350 347 355 22 35 277 290 267 274 289 292 267 232 151 143 145 193 172 212 159 159 191 228 241 230 202 242 210 192 210 213 192 262 160 210 210 233 242
4 5 6 9 12 10 6 3 356 346 332 326 327 348 340 255 296 288 280 242 222 282 250 153 177 181 188 186 161 171 191 196 213 202 192 218 223 197 226 201 186 183 191 187 202 215 224
2 4 5 7 12 10 7 5 1 350 329 311 311 324 323 333 301 280 246 240 294 310 29 357 210 182 198 167 177 179 187 200 219 249 185 198 184 177 207 232 177 203 208 198 189 205 203
357 1 3 5 10 8 5 2 2 354 334 319 318 322 343 331 293 247 258 323 173 22 342 293 216 204 189 172 181 183 192 200 184 258 308 183 160 115 238 237 273 198 234 234 274 200 214
355 358 1 0 4 4 0 359 357 350 335 312 324 260 354 333 301 261 257 143 81 8 295 266 246 172 183 167 214 199 179 33 135 237 286 270 130 188 173 250 244 266 220 240 241 238 208
352 355 358 358 0 3 360 357 356 354 344 297 279 253 37 329 284 261 18 60 74 54 331 341 325 171 253 186 204 193 159 83 275 289 288 304 197 168 170 206 206 213 241 235 231 256 213
348 352 355 357 359 3 2 360 359 360 1 0 295 299 354 298 260 0 47 35 270 47 45 69 35 357 272 114 295 125 145 29 319 301 237 292 274 162 202 80 314 295 230 235 239 227 267
345 349 353 355 359 4 4 5 3 3 8 324 336 39 17 288 295 102 124 98 46 75 36 66 86 22 321 324 98 97 122 71 2 346 12 355 259 150 182 187 210 237 216 268 233 262 236
344 347 351 354 358 4 4 2 2 1 9 352 310 241 81 51 28 69 113 93 112 62 77 88 112 166 186 201 177 155 141 120 73 51 328 285 262 277 8 275 194 212 219 235 270 241 250
342 344 350 355 357 2 5 6 4 2 29 340 349 51 7 14 48 53 56 17 127 103 87 105 114 207 244 172 158 150 137 149 149 94 247 303 262 267 61 6 339 179 199 206 243 257 312
336 341 348 354 356 2 10 13 16 22 42 22 0 11 95 64 353 149 132 47 80 85 338 84 94 118 206 181 329 147 178 236 113 156 270 262 212 288 212 259 255 247 201 217 281 336 259
332 339 346 354 356 359 12 21 25 34 50 45 49 63 312 187 229 52 35 42 71 69 62 56 44 117 122 61 18 28 2 22 59 284 201 261 247 222 256 181 259 245 237 211 216 212 305
328 333 341 352 355 354 6 28 32 35 61 42 18 334 350 91 46 74 83 75 58 52 80 72 41 287 59 208 195 209 179 158 215 214 256 233 238 238 254 162 236 95 10 315 197 150 92
326 325 338 353 357 351 347 18 37 40 50 57 15 344 352 49 98 126 105 110 123 116 68 48 52 51 148 212 173 170 174 187 158 243 216 255 234 230 250 212 153 162 171 176 184 158 209
318 327 337 350 1 352 343 335 5 38 43 63 8 27 316 311 78 113 124 222 220 124 157 106 75 60 218 273 244 254 172 269 170 165 239 208 263 255 216 263 228 81 102 65 233 178 169
300 321 327 348 4 357 340 337 320 314 17 44 359 22 317 313 126 201 329 31 337 311 64 127 155 176 226 259 316 324 16 349 269 231 178 201 217 226 231 239 118 106 126 159 208 113 143
292 304 320 337 7 3 348 347 335 319 311 60 291 349 6 310 130 190 160 171 176 260 321 103 199 190 202 238 218 141 271 167 273 298 270 206 204 218 244 230 233 132 141 230 95 127 130
286 295 307 310 348 356 352 360 4 350 346 69 22 329 326 267 44 188 207 209 203 351 343 175 357 335 19 223 238 168 220 207 220 259 206 276 268 262 309 36 93 139 76 126 138 140 131